Regional Weather Roundup
Issued by NWS Tiyan, Guam

Home | Current Version | Previous Version | Text Only | Print | Product List | Glossary On
Versions: 1 2 3 4 5 6 7 8 9 10 11 12 13 14 15 16 17 18 19 20 21 22 23 24 25 26 27
000
ASGM40 PGUM 152012
RWRGUM
WEATHER ROUNDUP FOR THE MARIANAS
NATIONAL WEATHER SERVICE TIYAN GU
600 AM CHST SAT DEC 16 2017

GUZ001>004-152100-
MARIANA ISLANDS-

CITY           SKY/WX    TMP DP  RH WIND       PRES   REMARKS
GUAM AIRPORT   PTCLDY    81  75  83 E12       29.82R
ANDERSEN AFB   PTCLDY    79  73  83 NE17      29.83R
ROTA AIRPORT   NOT AVBL
TINIAN AP      PTCLDY    79  73  83 NE10      29.82
SAIPAN AP      PTCLDY    81  73  78 NE9       29.83R

$$





USA.gov is the U.S. government's official web portal to all federal, state and local government web resources and services.